Tracking 19644 objects as of 24-Apr-2019
HD Live streaming from Space Station
objects crossing your sky now

THORAD DELTA 1 DEB

Track THORAD DELTA 1 DEB now!
10-day predictions


NORAD ID: 8140
Int'l Code: 1974-089J
Perigee: 1,451.3 km
Apogee: 1,520.1 km
Inclination: 101.7 °
Period: 115.5 minutes
Semi major axis: 7856 km
RCS: 0.4114 m2 (medium)
Launch date: November 15, 1974
Source: United States (US)
Launch site: AIR FORCE WESTERN TEST RANGE (AFWTR)

Note: This is SATELLITE DEBRIS
aabbcc
Your satellite tracking list
Your tracking list is empty




NASA's NSSDC Master Catalog

Two Line Element Set (TLE):
1  8140U 74089J   19113.86388760 -.00000015  00000-0  19749-3 0  9992
2  8140 101.6681  72.7957 0043802 116.1032 299.2805 12.46637967 22253
Source of the keplerian elements: AFSPC